Total_Precipitation_Accumulation
3.45 3.67 3.59 3.64 3.36 3.49 3.78 3.87 3.49 3.53 3.40 3.33 3.13 2.91 2.87 2.61 2.36 2.25 2.29 2.43 2.34 2.32 2.53 2.62 2.53 2.48 2.46 2.25 2.04 1.82 1.64 1.54 1.39 1.21 1.12 1.10 1.06 0.97 0.93 0.84 0.80 0.71 0.67
3.07 3.16 3.10 3.24 3.08 3.12 3.25 3.25 3.22 3.49 3.52 3.38 3.01 2.75 2.65 2.62 2.51 2.36 2.49 2.56 2.53 2.31 2.41 2.78 2.98 2.96 3.01 2.84 2.55 2.26 2.01 1.81 1.53 1.27 1.16 1.14 1.07 1.07 1.14 1.16 1.20 0.93 0.80
2.78 2.84 2.91 2.88 2.89 2.76 2.79 2.77 2.86 3.13 3.13 3.02 2.79 2.55 2.49 2.50 2.55 2.53 2.42 2.50 2.53 2.54 2.47 2.63 2.91 3.02 3.25 3.35 3.19 2.79 2.45 2.08 1.70 1.34 1.13 1.08 1.04 0.96 1.03 1.10 1.16 1.01 0.92
2.38 2.53 2.50 2.46 2.47 2.40 2.42 2.60 2.65 2.89 3.07 3.10 3.02 2.62 2.60 2.62 2.48 2.59 2.52 2.48 2.79 2.57 2.76 2.90 2.92 2.92 3.31 3.68 3.82 3.63 3.16 2.46 1.93 1.60 1.34 1.20 1.14 1.06 0.98 1.00 1.02 1.03 0.94
2.20 2.29 2.39 2.47 2.16 2.21 2.31 2.15 2.48 2.71 3.01 3.07 2.60 2.57 2.37 2.32 2.34 2.19 2.37 2.30 2.51 2.65 2.88 2.94 3.01 2.93 3.31 4.02 4.56 4.72 4.22 3.35 2.61 2.21 1.99 1.77 1.57 1.30 1.15 1.12 1.09 1.06 0.98
2.26 2.30 2.16 2.06 1.86 2.07 2.38 2.51 2.90 2.89 2.84 2.83 2.32 2.49 2.28 1.96 2.05 2.16 2.13 2.30 2.35 2.19 2.56 2.92 3.15 2.69 3.05 3.77 4.29 4.73 4.97 4.58 3.79 3.07 2.71 2.48 2.26 1.81 1.35 1.20 1.18 1.14 1.04
2.39 2.44 2.22 2.27 1.99 2.06 2.19 2.25 2.52 2.68 2.62 2.60 2.88 2.96 2.50 2.05 2.05 2.00 1.99 2.28 2.31 2.34 2.74 3.19 3.33 3.16 2.73 2.62 2.82 3.51 4.44 5.03 4.90 4.16 3.56 3.08 2.77 2.28 1.74 1.42 1.26 1.21 1.20
2.38 2.23 2.40 2.16 2.06 2.27 2.30 2.35 2.58 2.67 2.59 2.64 2.83 3.19 2.93 2.86 2.46 1.81 2.04 2.19 2.24 2.49 2.57 2.72 3.06 3.35 2.97 2.97 2.28 2.36 3.29 4.14 4.93 4.93 4.24 3.48 3.13 2.79 2.30 1.91 1.65 1.45 1.35
2.26 2.36 2.30 2.30 2.34 2.03 2.27 2.44 2.46 2.62 2.68 2.59 2.57 2.98 3.00 2.98 2.59 2.01 1.89 1.99 2.20 2.50 2.51 2.61 2.48 2.75 2.96 3.28 3.01 2.35 2.49 2.83 3.81 4.82 4.85 4.07 3.34 2.81 2.56 2.41 2.23 1.93 1.68
2.19 2.19 2.28 2.54 2.58 2.24 2.42 2.01 2.15 2.47 2.65 2.54 2.59 2.44 2.39 2.56 2.74 2.61 2.22 2.01 2.11 2.24 2.33 2.36 2.51 2.75 2.92 3.22 3.18 2.39 1.86 1.97 2.72 3.89 4.66 4.50 3.85 3.13 2.78 2.84 3.11 3.04 2.56
2.51 2.16 2.13 2.38 2.55 2.47 2.50 2.33 2.55 2.37 2.28 2.26 2.36 2.42 2.44 2.34 2.18 2.40 2.46 2.30 2.16 1.89 1.88 1.96 2.12 2.29 2.35 2.73 3.03 2.32 1.86 1.84 2.04 2.63 3.24 3.67 3.70 3.46 3.20 3.33 3.90 4.27 4.07
2.50 2.28 2.25 2.52 2.52 2.47 2.55 2.46 2.46 2.30 2.26 2.24 2.18 2.14 2.45 2.45 2.30 2.40 2.20 2.15 2.09 1.68 1.60 1.69 1.78 1.88 2.03 2.30 2.23 2.05 2.08 2.14 2.01 2.01 2.10 2.37 2.78 3.06 3.30 3.51 3.90 4.37 4.62
2.16 2.26 2.39 2.64 2.53 2.46 2.40 2.48 2.46 2.42 2.44 2.45 2.32 2.15 2.19 2.27 2.33 2.32 2.29 1.98 1.83 1.62 1.67 1.62 1.61 1.80 1.91 2.37 2.49 2.26 2.17 2.34 2.06 1.83 1.74 1.73 1.87 2.16 2.48 2.81 3.32 3.85 4.30
2.16 2.25 2.36 2.28 2.24 2.28 2.15 2.43 2.30 2.27 2.39 2.41 2.28 2.58 2.46 2.15 2.29 2.30 2.41 2.58 2.33 2.06 2.04 1.96 1.92 2.06 2.25 2.44 2.64 2.44 2.11 2.04 1.79 1.67 1.61 1.56 1.58 1.64 1.79 1.96 2.23 2.59 2.90
2.08 2.18 2.18 2.22 2.24 2.24 2.29 2.50 2.39 2.38 2.55 2.38 2.37 2.74 2.57 2.24 2.23 2.26 2.41 2.69 2.96 2.62 2.32 2.27 2.33 2.37 2.42 2.42 2.51 2.29 2.07 1.96 1.75 1.60 1.54 1.50 1.50 1.47 1.47 1.50 1.58 1.74 1.91
1.92 2.08 2.15 2.24 2.28 2.21 2.26 2.43 2.29 2.43 2.53 2.46 2.47 2.56 2.51 2.30 2.32 2.36 2.50 2.69 2.95 2.91 2.52 2.29 2.50 2.52 2.41 2.23 2.50 2.41 2.16 2.03 1.73 1.53 1.39 1.35 1.38 1.45 1.47 1.47 1.45 1.50 1.56
1.90 2.03 2.12 2.20 2.20 2.22 2.35 2.44 2.29 2.43 2.45 2.55 2.50 2.46 2.43 2.62 2.64 2.44 2.56 2.64 2.85 3.06 2.82 2.46 2.59 2.59 2.49 2.28 2.27 2.23 2.13 2.08 1.86 1.77 1.53 1.42 1.36 1.35 1.35 1.37 1.44 1.48 1.48
1.97 2.07 2.19 2.29 2.20 2.27 2.40 2.35 2.32 2.40 2.47 2.45 2.56 2.75 2.68 2.79 2.75 2.66 2.76 2.74 2.85 3.11 3.04 2.76 2.67 2.68 2.58 2.50 2.40 2.18 1.88 1.81 1.81 1.97 1.75 1.55 1.46 1.42 1.36 1.31 1.28 1.25 1.23
2.10 2.10 2.09 2.18 2.32 2.48 2.50 2.34 2.31 2.31 2.25 2.19 2.34 2.60 2.87 3.28 3.10 2.89 2.74 2.66 2.73 2.82 3.05 2.82 2.62 2.79 2.65 2.55 2.48 2.14 1.91 1.86 1.58 1.68 1.71 1.55 1.38 1.26 1.20 1.18 1.15 1.11 1.07
2.10 2.20 2.25 2.27 2.34 2.39 2.35 2.32 2.34 2.35 2.31 2.16 2.16 2.25 2.43 2.74 2.90 3.02 2.76 2.61 2.69 2.82 2.97 2.91 2.86 3.06 3.10 2.96 2.72 2.33 2.16 2.02 1.81 1.54 1.57 1.46 1.35 1.26 1.20 1.15 1.13 1.11 1.10
2.19 2.39 2.43 2.40 2.40 2.35 2.17 2.32 2.44 2.31 2.36 2.27 2.22 2.16 2.03 2.16 2.35 2.52 2.40 2.68 2.85 2.82 2.89 2.94 3.06 3.43 3.43 3.22 2.70 2.43 2.33 2.25 2.00 1.68 1.59 1.40 1.30 1.19 1.17 1.20 1.17 1.12 1.09
2.65 2.68 2.53 2.48 2.43 2.20 2.33 2.36 2.36 2.35 2.42 2.38 2.32 2.29 2.14 2.00 1.99 2.10 2.14 2.34 2.58 2.63 2.71 2.88 2.98 3.18 3.23 3.15 2.91 2.64 2.42 2.28 2.02 1.78 1.76 1.62 1.46 1.35 1.23 1.12 1.23 1.22 1.20
2.76 2.76 2.79 2.76 2.65 2.69 2.67 2.33 2.25 2.25 2.33 2.33 2.47 2.56 2.17 1.83 2.02 1.97 2.04 2.04 1.98 2.12 2.32 2.54 2.70 2.79 3.09 3.20 3.18 2.76 2.58 2.41 2.09 1.93 1.96 1.79 1.68 1.50 1.30 1.23 1.32 1.18 1.17
2.72 2.68 2.61 2.54 2.50 2.47 2.50 2.25 2.18 2.06 2.12 2.15 2.17 2.20 2.17 2.00 1.91 1.94 1.93 1.81 1.69 1.72 1.86 1.90 2.00 2.27 2.63 3.09 3.34 3.06 2.92 2.71 2.39 2.10 1.90 1.78 1.69 1.57 1.41 1.31 1.37 1.22 1.12
2.60 2.52 2.46 2.45 2.40 2.39 2.42 2.22 2.16 1.98 1.95 1.92 1.90 1.91 1.95 1.85 1.89 1.85 1.75 1.70 1.65 1.56 1.58 1.65 1.64 1.77 2.08 2.47 2.93 3.09 2.81 2.47 2.19 1.91 1.82 1.71 1.56 1.65 1.63 1.48 1.41 1.44 1.24
2.68 2.62 2.54 2.56 2.54 2.51 2.62 2.35 2.19 2.02 2.02 2.05 2.14 2.11 2.07 1.91 1.89 1.79 1.63 1.61 1.49 1.38 1.47 1.45 1.39 1.41 1.52 1.85 2.33 2.49 2.58 2.40 2.10 1.88 1.61 1.63 1.56 1.67 1.71 1.47 1.31 1.32 1.28